Other Public Products
Issued by NWS Grand Forks, ND

Home | Current Version | Previous Version | Text Only | Print | Product List | Glossary Off
Versions: 1 2 3 4 5 6 7 8 9 10 11 12 13 14 15 16 17 18 19 20 21 22 23 24 25 26 27 28 29 30 31 32 33 34 35 36 37 38 39 40 41 42 43 44 45 46 47 48 49 50

000
FPUS83 KFGF 240531
OPUFGF
PRAIRIE TO PINES WEATHER ROUNDUP
NATIONAL WEATHER SERVICE EASTERN NORTH DAKOTA/GRAND FORKS ND
1200 AM CDT FRI OCT 24 2014

 **SATELLITE DATA USED TO AUGMENT SKY COVER AT AUTOMATED STATIONS**
 *****  WEATHER ACROSS EASTERN NORTH DAKOTA  *****

CITY           SKY/WX    TMP DP  RH WIND       PRES   REMARKS
GRAND FORKS    CLOUDY    46  39  76 S8        29.75F
GRAND FORKS AF CLOUDY    52  38  60 S8        29.75F
GRAND CITY NWS   N/A     46 N/A N/A S10         N/A
BUXTON           N/A     48  46  90 S7          N/A
DEVILS LAKE    MOCLDY    52  36  54 SW10      29.75R
FARGO          CLOUDY    53  41  63 S10       29.81F
WAHPETON ARPT  PTCLDY    50  39  66 S9        29.84F
$$

 *****  WEATHER ACROSS CENTRAL AND WESTERN NORTH DAKOTA  *****

CITY           SKY/WX    TMP DP  RH WIND       PRES   REMARKS
JAMESTOWN      PTCLDY    50  36  58 S9        29.80F
BISMARCK       CLOUDY    50  32  50 W5        29.82S
MINOT          CLOUDY    56  32  40 SW12      29.75R
MINOT AFB      MOCLDY    51  35  54 SW9       29.73S
GARRISON         N/A     49  35  58 CALM      29.78S
WILLISTON      CLOUDY    44  35  70 CALM      29.78R
DICKINSON      CLOUDY    56  31  38 SW14      29.82R
HETTINGER      CLOUDY    46  28  49 N3        29.87S
$$

 *****  OTHER OBSERVATIONS NORTHEAST NORTH DAKOTA  *****

CITY           SKY/WX    TMP DP  RH WIND       PRES   REMARKS
WALHALLA       FAIR      50  37  62 S6        29.72F
LANGDON        FAIR      43  36  75 S9        29.73R
CAVALIER       FAIR      50  39  66 S6        29.71F
GRAFTON        FAIR      46  39  76 S9        29.72F
CANDO          FAIR      41  36  81 SW6       29.74F
FORT TOTTEN    NOT AVBL
ROLLA          FAIR      46  34  61 SW7       29.74F
RUGBY          FAIR      46  36  66 SW6       29.75S
 ***** THE ABOVE OBSERVATIONS ARE NON NWS ARE NOT QUALITY
        CONTROLLED AND MAY MIS-REPORT RAIN FOR SNOW...
$$

 *****  OTHER OBSERVATIONS SOUTHEAST NORTH DAKOTA *****

CITY           SKY/WX    TMP DP  RH WIND       PRES   REMARKS
COOPERSTOWN    NOT AVBL
VALLEY CITY    FAIR      45  41  87 SW8       29.81S
OAKES            N/A     45  45 100 S7        29.83S
GWINNER        CLEAR     52  46  82 SW12      29.83F
SHEYENNE NWR     N/A     43  39  87 S3        29.95S
BUFFALO          N/A     52  40  62 SW10        N/A
WYNDMERE         N/A     50  45  81 S5          N/A
 ***** THE ABOVE OBSERVATIONS ARE NON NWS ARE NOT QUALITY
       CONTROLLED AND MAY MIS-REPORT RAIN FOR SNOW...
$$

  *****  WEATHER ACROSS NORTHERN MINNESOTA  *****

CITY           SKY/WX    TMP DP  RH WIND       PRES   REMARKS
FLAG ISLAND    CLOUDY    50  45  81 SE8       29.74F
WARROAD        CLOUDY    52  43  71 S5        29.76F
ROSEAU         CLOUDY    52  43  71 S8        29.75F
HALLOCK        CLOUDY    50  41  71 SE8       29.72F
THF RVR FALLS  CLOUDY    50  39  66 S7        29.79F
HALSTAD          N/A     49  39  69 S12         N/A
FOSSTON        MOCLDY    52  37  58 S12       29.82F
BAUDETTE       CLOUDY    47  38  71 S3        29.78F
WASKISH        MOCLDY    54  39  58 CALM      29.81S
CROOKSTON      CLOUDY    52  43  71 S10       29.79S
$$
  *****  WEATHER ACROSS CENTRAL AND WEST MINNESOTA  *****

CITY           SKY/WX    TMP DP  RH WIND       PRES   REMARKS
BEMIDJI        MOCLDY    53  39  59 SW6       29.84S
PARK RAPIDS    MOCLDY    51  41  68 S8        29.87S
WADENA         PTCLDY    48  41  76 S6        29.88S
DETROIT LAKES  PTCLDY    55  45  67 SW10      29.85F
MOORHEAD       CLOUDY    52  45  76 S7        29.83F
FERGUS FALLS   MOCLDY    48  39  71 S8        29.87F
ELBOW LAKE     FAIR      48  42  80 SE8       29.87F
MORRIS MN      PTCLDY    46  41  81 SE9       29.86F
STAPLES        FAIR      48  39  71 S6        29.89S
WHEATON        PTCLDY    48  41  76 S8        29.88F
$$
  *****  WEATHER ELSEWHERE ACROSS MINNESOTA  *****

CITY           SKY/WX    TMP DP  RH WIND       PRES   REMARKS
DULUTH         CLEAR     47  45  93 S6        29.92S FOG
INTRNTL FALLS  PTCLDY    48  39  71 S5        29.82F
ELY            CLEAR     46  45  93 S3        29.89S
CLOQUET        CLOUDY    48  46  93 S6        29.92S FOG
BRAINERD       PTCLDY    52  37  56 S10       29.90F
HIBBING        FOG       35  33  92 CALM      29.90S VSB 1/4
ALEXANDRIA     PTCLDY    54  42  64 S12       29.91F
SAINT CLOUD    PTCLDY    45  39  79 SE5       29.93F
MINNEAPOLIS    CLEAR     49  47  93 SE6       29.97R
$$

  *****  WEATHER ACROSS SOUTH DAKOTA  *****

CITY           SKY/WX    TMP DP  RH WIND       PRES   REMARKS
SIOUX FALLS    MOCLDY    56  47  71 S12       29.91F
BROOKINGS      NOT AVBL
WATERTOWN      MOCLDY    50  44  80 SE8       29.89S
HURON          MOCLDY    52  45  77 SE8       29.85F
SISSETON         N/A     47  42  83 S6        29.84F
ABERDEEN       MOCLDY    40  38  93 CALM      29.85F
MITCHELL       PTCLDY    54  49  83 S8        29.87F
PIERRE         MOCLDY    47  36  65 CALM      29.84S
MOBRIDGE       CLOUDY    48  41  76 SE5       29.83S
RAPID CITY     PTCLDY    43  34  70 NW3       29.92F
$$

  *****  SOME WEATHER IN NEARBY STATES *****

CITY           SKY/WX    TMP DP  RH WIND       PRES   REMARKS
GLASGOW MT     MOCLDY    48  37  65 E3        29.77S
GREAT FALLS MT CLOUDY    50  39  66 SW10      29.88R
CHEYENNE WY    MOCLDY    55  30  38 CALM      30.14F
SCOTTSBLUFF NE MOCLDY    46  36  68 E3        30.02S
OMAHA NE       CLOUDY    56  49  77 S8        30.01S
DES MOINES IA  FOG       53  52  96 S7        30.04S VSB 1/4
DAVENPORT IA   CLEAR     50  46  86 SW6       30.05F
CHICAGO IL     CLOUDY    55  42  61 SW5       30.05F
EAU CLAIRE WI  CLOUDY    50  48  93 S7        30.00F FOG
LA CROSSE WI   CLOUDY    51  49  92 S7        30.03S FOG
$$

  *****  SOME NATIONAL WEATHER *****

CITY           SKY/WX    TMP DP  RH WIND       PRES   REMARKS
LA GUARDIA NY  CLOUDY    52  45  77 NW16      29.76F
RALEIGH NC     PTCLDY    52  41  66 N3        30.02S
ATLANTA GA     CLOUDY    55  44  66 NW5       30.03F
NEW ORLEANS LA PTCLDY    66  49  54 NE9       30.07F
OKLAHOMA CITY  PTCLDY    63  58  83 S6        30.10S
ALBUQUERQUE NM CLEAR     56  38  50 SE5       30.27R
SALT LAKE CITY CLOUDY    55  41  59 NW3       30.05R
LOS ANGELES CA CLEAR     69  66  90 CALM      29.94R
BOISE ID       CLOUDY    52  49  89 CALM      30.08S
SEATTLE WA     MOCLDY    49  46  90 SE9       29.98R
$$

*** WEATHER ACROSS MANITOBA...SASKATCHEWAN AND ONTARIO ***
                ***ONTARIO***

CITY           SKY/WX    TMP DP  RH WIND       PRES   REMARKS
GERALDTON      DRZL/FOG N/A N/A N/A S2          N/A  VSB 3/4
THUNDER BAY    CLOUDY    46  45  93 SW5       29.93S
SIOUX LOOKOUT  CLOUDY    48  46  93 S7        29.80S
TORONTO        CLEAR     45  39  81 N8        30.04F
BIG TROUT LK   CLOUDY    48  45  87 S5        29.71S
PICKLE LAKE    NOT AVBL
DRYDEN         PTCLDY    50  41  71 S12       29.79S
KENORA         PTCLDY    52  41  66 S7        29.76F
$$
                *** MANITOBA***

CITY           SKY/WX    TMP DP  RH WIND       PRES   REMARKS
BRANDON        PTCLDY    43  36  75 W7        29.69S
DAUPHIN        PTCLDY    55  41  58 SW14      29.60F
ISLAND LAKE    CLOUDY    48  46  93 S6        29.65F
PILOT MOUND      N/A     43  32  65 S8          N/A
THE PAS        FOG       43  43 100 SE9       29.55F VSB 1/2
THOMPSON       DRZL/FOG  37  37 100 NW2       29.60  VSB 1/4
WINNIPEG       MOCLDY    54  39  58 S9        29.70F
LYNN LAKE      LGT RAIN  36  36 100 E7        29.58F VSB 1
CHURCHILL      LGT RAIN  37  36  93 E26G39    29.72F FOG
GILLAM         LGT RAIN  39  39 100 S2        29.58  VSB 3/8
$$
                ***SASKATCHEWAN***

CITY           SKY/WX    TMP DP  RH WIND       PRES   REMARKS
ESTEVAN        MOCLDY    50  37  62 SW9       29.73R
KINDERSLEY     CLOUDY    52  39  62 SW15      29.58R
LLOYDMINSTER   NOT AVBL
PRINCE ALBERT  MOCLDY    37  37 100 CALM      29.50R
REGINA         PTCLDY    46  39  76 S6        29.67F



USA.gov is the U.S. government's official web portal to all federal, state and local government web resources and services.